When you browse on this site, cookies collect data to enhance your experience and personalize the content and advertising you see.
Visit our Privacy Policy to learn more. By continuing to use the site, you agree to this use of cookies and data.
  • In Portugal
  • List of Countries
  • For 7 days
  • Water Temperature
  • Satellite Maps
  • Weather Map
  • Weather Widgets
  • user-avatar
    Login

    Hourly Weather Sozopol

    Today, 11 December, Tuesday

    Time Temperature Precipitation Wind Pressure Humidity
    00:00 +3°C° 0.5 mm 7 mps 751 mmHg 83%
    01:00 +3°C° 0.5 mm 7 mps 751 mmHg 84%
    02:00 +3°C° 0 mm 7 mps 751 mmHg 83%
    03:00 +3°C° 0.4 mm 7 mps 751 mmHg 83%
    04:00 +2°C° 0.4 mm 7 mps 752 mmHg 82%
    05:00 +2°C° 0.4 mm 7 mps 752 mmHg 82%
    06:00 +2°C° 0.1 mm 7 mps 753 mmHg 82%
    07:00 +2°C° 0.1 mm 7 mps 753 mmHg 82%
    08:00 +2°C° 0.1 mm 7 mps 754 mmHg 83%
    09:00 +3°C° 0 mm 7 mps 754 mmHg 79%
    10:00 +3°C° 0 mm 7 mps 754 mmHg 75%
    11:00 +4°C° 0 mm 7 mps 755 mmHg 71%
    12:00 +4°C° 0 mm 6 mps 755 mmHg 70%
    13:00 +5°C° 0 mm 6 mps 755 mmHg 68%
    14:00 +6°C° 0 mm 5 mps 756 mmHg 66%
    15:00 +5°C° 0 mm 5 mps 756 mmHg 69%
    16:00 +3°C° 0 mm 5 mps 756 mmHg 73%
    17:00 +2°C° 0 mm 5 mps 757 mmHg 76%
    18:00 +2°C° 0 mm 5 mps 757 mmHg 76%
    19:00 +1°C° 0 mm 5 mps 757 mmHg 77%
    20:00 +1°C° 0 mm 5 mps 757 mmHg 77%
    21:00 +1°C° 0 mm 5 mps 757 mmHg 76%
    22:00 +1°C° 0 mm 5 mps 757 mmHg 75%
    23:00 0°C° 0 mm 5 mps 758 mmHg 74%

    Tomorrow, 12 December, Wednesday

    Time Temperature Precipitation Wind Pressure Humidity
    00:00 0°C° 0 mm 5 mps 758 mmHg 75%
    01:00 0°C° 0 mm 5 mps 758 mmHg 76%
    02:00 0°C° 0 mm 5 mps 758 mmHg 76%
    03:00 -1°C° 0 mm 5 mps 758 mmHg 77%
    04:00 -1°C° 0 mm 5 mps 758 mmHg 78%
    05:00 -1°C° 0 mm 5 mps 758 mmHg 79%
    06:00 -1°C° 0 mm 5 mps 758 mmHg 79%
    07:00 -1°C° 0 mm 4 mps 758 mmHg 79%
    08:00 -1°C° 0 mm 4 mps 759 mmHg 79%
    09:00 0°C° 0 mm 4 mps 759 mmHg 75%
    10:00 +1°C° 0 mm 5 mps 759 mmHg 71%
    11:00 +3°C° 0 mm 5 mps 759 mmHg 67%
    12:00 +3°C° 0 mm 5 mps 759 mmHg 66%
    13:00 +3°C° 0 mm 5 mps 759 mmHg 66%
    14:00 +3°C° 0 mm 5 mps 759 mmHg 66%
    15:00 +2°C° 0 mm 5 mps 760 mmHg 70%
    16:00 +1°C° 0 mm 4 mps 760 mmHg 74%
    17:00 0°C° 0 mm 4 mps 760 mmHg 79%
    18:00 0°C° 0 mm 4 mps 760 mmHg 79%
    19:00 0°C° 0 mm 4 mps 761 mmHg 80%
    20:00 0°C° 0 mm 4 mps 761 mmHg 80%
    21:00 0°C° 0 mm 4 mps 761 mmHg 79%
    22:00 0°C° 0 mm 4 mps 761 mmHg 78%
    23:00 0°C° 0 mm 4 mps 761 mmHg 77%

    Day after tomorrow, 13 December, Thursday

    Time Temperature Precipitation Wind Pressure Humidity
    00:00 0°C° 0 mm 4 mps 762 mmHg 76%
    01:00 -1°C° 0 mm 4 mps 762 mmHg 75%
    02:00 -1°C° 0 mm 5 mps 762 mmHg 74%
    03:00 -1°C° 0 mm 4 mps 762 mmHg 74%
    04:00 -1°C° 0 mm 4 mps 761 mmHg 75%
    05:00 -1°C° 0 mm 4 mps 761 mmHg 75%
    06:00 -1°C° 0 mm 4 mps 762 mmHg 75%
    07:00 -1°C° 0 mm 4 mps 762 mmHg 76%
    08:00 -1°C° 0 mm 4 mps 762 mmHg 76%
    09:00 +1°C° 0 mm 4 mps 762 mmHg 70%
    10:00 +3°C° 0 mm 4 mps 762 mmHg 64%
    11:00 +5°C° 0 mm 4 mps 762 mmHg 58%
    12:00 +5°C° 0 mm 4 mps 762 mmHg 57%
    13:00 +6°C° 0 mm 4 mps 761 mmHg 57%
    14:00 +6°C° 0 mm 4 mps 761 mmHg 56%
    15:00 +5°C° 0 mm 4 mps 761 mmHg 61%
    16:00 +4°C° 0 mm 3 mps 761 mmHg 66%
    17:00 +3°C° 0 mm 3 mps 761 mmHg 72%
    18:00 +4°C° 0 mm 2 mps 761 mmHg 72%
    19:00 +3°C° 0 mm 2 mps 761 mmHg 73%
    20:00 +4°C° 0 mm 1 mps 761 mmHg 73%
    21:00 +4°C° 0 mm 1 mps 761 mmHg 74%
    22:00 +4°C° 0 mm 1 mps 761 mmHg 74%
    23:00 +4°C° 0 mm 1 mps 761 mmHg 74%

    14 December, Friday

    Time Temperature Precipitation Wind Pressure Humidity
    00:00 +4°C° 0.1 mm 1 mps 761 mmHg 74%
    01:00 +4°C° 0.1 mm 1 mps 761 mmHg 75%
    02:00 +4°C° 0.1 mm 1 mps 761 mmHg 75%
    03:00 +4°C° 0.1 mm 1 mps 761 mmHg 76%
    04:00 +4°C° 0.1 mm 1 mps 761 mmHg 76%
    05:00 +4°C° 0.1 mm 1 mps 761 mmHg 77%
    06:00 +3°C° 0 mm 1 mps 761 mmHg 78%
    07:00 +3°C° 0 mm 1 mps 762 mmHg 79%
    08:00 +3°C° 0 mm 1 mps 762 mmHg 79%
    09:00 +5°C° 0 mm 1 mps 762 mmHg 76%
    10:00 +6°C° 0 mm 1 mps 763 mmHg 72%
    11:00 +7°C° 0 mm 1 mps 763 mmHg 68%
    12:00 +8°C° 0 mm 1 mps 763 mmHg 68%
    13:00 +7°C° 0 mm 2 mps 763 mmHg 68%
    14:00 +8°C° 0 mm 2 mps 762 mmHg 68%
    15:00 +7°C° 0 mm 2 mps 763 mmHg 73%
    16:00 +6°C° 0 mm 2 mps 763 mmHg 78%
    17:00 +4°C° 0 mm 3 mps 763 mmHg 83%
    18:00 +4°C° 0 mm 3 mps 763 mmHg 84%
    19:00 +4°C° 0 mm 3 mps 763 mmHg 85%
    20:00 +4°C° 0 mm 3 mps 763 mmHg 86%
    21:00 +4°C° 0 mm 3 mps 763 mmHg 86%
    22:00 +4°C° 0 mm 3 mps 763 mmHg 87%
    23:00 +3°C° 0 mm 4 mps 763 mmHg 87%

    15 December, Saturday

    Time Temperature Precipitation Wind Pressure Humidity
    00:00 +4°C° 0 mm 4 mps 763 mmHg 87%
    01:00 +4°C° 0 mm 4 mps 763 mmHg 87%
    02:00 +4°C° 0 mm 4 mps 763 mmHg 87%
    03:00 +3°C° 0 mm 5 mps 763 mmHg 88%
    04:00 +5°C° 0 mm 5 mps 763 mmHg 89%
    05:00 +5°C° 0 mm 5 mps 762 mmHg 89%
    06:00 +4°C° 0.2 mm 6 mps 762 mmHg 90%
    07:00 +4°C° 0.2 mm 6 mps 762 mmHg 91%
    08:00 +5°C° 0.2 mm 6 mps 762 mmHg 91%
    09:00 +5°C° 0.2 mm 7 mps 762 mmHg 91%
    10:00 +6°C° 0.2 mm 7 mps 762 mmHg 90%
    11:00 +6°C° 0.2 mm 7 mps 762 mmHg 89%
    12:00 +6°C° 1 mm 7 mps 762 mmHg 90%
    13:00 +6°C° 1 mm 7 mps 761 mmHg 91%
    14:00 +6°C° 1 mm 7 mps 761 mmHg 93%
    15:00 +7°C° 0.9 mm 6 mps 761 mmHg 94%
    16:00 +7°C° 0.9 mm 6 mps 761 mmHg 95%
    17:00 +7°C° 0.9 mm 5 mps 760 mmHg 96%
    18:00 +7°C° 0.2 mm 5 mps 760 mmHg 96%
    19:00 +7°C° 0.2 mm 5 mps 760 mmHg 96%
    20:00 +7°C° 0.2 mm 5 mps 760 mmHg 96%
    21:00 +7°C° 0.1 mm 4 mps 760 mmHg 96%
    22:00 +7°C° 0.1 mm 4 mps 760 mmHg 96%
    23:00 +7°C° 0.1 mm 4 mps 760 mmHg 96%

    16 December, Sunday

    Time Temperature Precipitation Wind Pressure Humidity
    00:00 +7°C° 0.1 mm 4 mps 760 mmHg 96%
    01:00 +7°C° 0.1 mm 4 mps 759 mmHg 96%
    02:00 +7°C° 0.1 mm 4 mps 759 mmHg 96%
    03:00 +8°C° 0.2 mm 4 mps 759 mmHg 97%
    04:00 +8°C° 0.2 mm 4 mps 759 mmHg 97%
    05:00 +8°C° 0.2 mm 4 mps 759 mmHg 97%
    06:00 +8°C° 0.4 mm 4 mps 759 mmHg 97%
    07:00 +8°C° 0.4 mm 4 mps 759 mmHg 97%
    08:00 +8°C° 0.4 mm 4 mps 759 mmHg 98%
    09:00 +8°C° 0.3 mm 4 mps 759 mmHg 97%
    10:00 +10°C° 0.3 mm 4 mps 759 mmHg 97%
    11:00 +10°C° 0.3 mm 4 mps 760 mmHg 97%
    12:00 +10°C° 0.4 mm 4 mps 760 mmHg 96%
    13:00 +10°C° 0.4 mm 4 mps 759 mmHg 96%
    14:00 +9°C° 0.4 mm 5 mps 759 mmHg 95%
    15:00 +9°C° 0.2 mm 5 mps 760 mmHg 95%
    16:00 +9°C° 0.2 mm 5 mps 760 mmHg 95%
    17:00 +8°C° 0.2 mm 6 mps 761 mmHg 94%
    18:00 +8°C° 0.1 mm 6 mps 761 mmHg 94%
    19:00 +8°C° 0.1 mm 6 mps 761 mmHg 93%
    20:00 +8°C° 0.1 mm 6 mps 762 mmHg 93%
    21:00 +7°C° 0.1 mm 6 mps 762 mmHg 92%
    22:00 +6°C° 0.1 mm 7 mps 762 mmHg 91%
    23:00 +6°C° 0.1 mm 7 mps 763 mmHg 90%
    Show more